Home   Weather   Wolfsberg   Past weeks

Flag for Austria Past Weather in Wolfsberg, Carinthia, Austria — Yesterday and Last 2 Weeks

Now
48 °F

Partly sunny.


Feels Like: 48 °F
Forecast: 43 / 75 °F
Wind: 2 mph from North

Location: Zeltweg

Current Time: Sep 28, 2016 at 10:43:44 AM

Latest Report: Sep 28, 2016 at 9:50 AM


Visibility: 12 mi

Pressure: 30.45 "Hg

Humidity: 94%

Dew Point: 46 °F

Location of WolfsbergLocation

Past Weather in Wolfsberg — Graph

°F

Wolfsberg Temperature Yesterday

Maximum temperature yesterday: 68 °F (at 2:20 PM)
Minimum temperature yesterday: 41 °F (at 5:50 AM)
Average temperature yesterday: 56 °F

High & Low Weather Summary for the Past Weeks

 TemperatureHumidityPressure
High79 °F (Sep 13, 2:50 PM)100% (Sep 14, 5:50 AM)30.45 "Hg (Sep 14, 5:50 AM)
Low37 °F (Sep 22, 4:50 AM)33% (Sep 24, 3:50 PM)29.83 "Hg (Sep 17, 7:50 AM)
Average58 °F72%30.09 "Hg
* Reported Sep 13 9:20 AM — Sep 28 9:20 AM, Wolfsberg, Weather by CustomWeather, © 2016

Note: Actual official high and low records may vary slightly from our data, if they occured in-between our weather recording intervals... More about our weather records

Advertising

Wolfsberg Weather History for the Previous 24 Hours

Scroll right to see more
 ConditionsComfort  
Time TempWeatherWind HumidityBarometerVisibility
9:20 AM
Wed, Sep 28
45 °FFog.2 mph100%30.45 "Hg2 mi
8:50 AM43 °FFog.2 mph93%30.45 "Hg1 mi
8:20 AM41 °FFog.2 mph100%30.45 "Hg0 mi
7:50 AM41 °FFog.2 mph100%30.45 "Hg0 mi
7:20 AM41 °FFog.2 mph93%30.45 "Hg0 mi
6:50 AM41 °FFog.2 mph100%30.45 "Hg0 mi
5:50 AM39 °FFog.2 mph100%30.45 "Hg0 mi
4:50 AM39 °FFog.2 mph100%30.45 "Hg1 mi
10:50 PM
Tue, Sep 27
48 °FPassing clouds.1 mph87%30.42 "Hg6 mi
9:50 PM50 °FPassing clouds.3 mph88%30.39 "Hg6 mi
8:50 PM55 °FPassing clouds.2 mph72%30.39 "Hg9 mi
8:20 PM55 °FPassing clouds.1 mph72%30.36 "Hg12 mi
7:50 PM55 °FPassing clouds.3 mph77%30.36 "Hg12 mi
6:50 PM63 °FPassing clouds.6 mph59%30.33 "Hg12 mi
6:20 PM64 °FPassing clouds.6 mph56%30.30 "Hg16 mi
5:50 PM66 °FPassing clouds.6 mph52%30.30 "Hg19 mi
5:20 PM66 °FScattered clouds.9 mph49%30.30 "Hg19 mi
4:50 PM68 °FScattered clouds.9 mph43%30.27 "Hg19 mi
4:20 PM68 °FScattered clouds.8 mph43%30.27 "Hg19 mi
3:50 PM68 °FScattered clouds.6 mph46%30.27 "Hg19 mi
3:20 PM68 °FPassing clouds.5 mph43%30.27 "Hg19 mi
2:50 PM66 °FPassing clouds.5 mph49%30.27 "Hg19 mi
2:20 PM68 °FPassing clouds.3 mph49%30.27 "Hg19 mi
1:50 PM64 °FPassing clouds.5 mph56%30.27 "Hg19 mi
1:20 PM63 °FPassing clouds.2 mph59%30.30 "Hg19 mi
12:50 PM61 °FPassing clouds.2 mph63%30.30 "Hg19 mi
12:20 PM59 °FPassing clouds.2 mph68%30.30 "Hg19 mi
11:50 AM59 °FPassing clouds.1 mph68%30.30 "Hg19 mi
11:20 AM55 °FPassing clouds.1 mph77%30.30 "Hg19 mi
10:50 AM54 °FPartly sunny.1 mph82%30.30 "Hg19 mi
10:20 AM48 °FScattered clouds.1 mph94%30.30 "Hg12 mi
Weather by CustomWeather, © 2016

See weather overviewHow to use our weather pages